Location: Tofino
(49.1330°N, 125.9000°W)
Time: 20:11:59
(UTC-08:00)

N. Korean satellite - Visible Passes

Search period start: 10 December 2017 00:00
Search period end: 20 December 2017 00:00
Orbit: 461 x 513 km, 97.2° (Epoch: 10 December)

Date Brightness Start Highest point End Pass type
(mag) Time Alt. Az. Time Alt. Az. Time Alt. Az.
10 Dec 10.3 05:57:40 10° ENE 05:58:23 10° E 05:59:05 10° E visible
10 Dec 6.6 07:28:38 10° N 07:32:24 74° WNW 07:36:06 10° SSW visible
10 Dec 6.5 18:08:23 10° SSE 18:12:05 78° ENE 18:15:51 10° N visible
11 Dec 7.4 07:05:07 10° NNE 07:08:51 59° E 07:12:29 10° S visible
11 Dec 7.0 17:45:05 10° SE 17:48:36 42° ENE 17:52:10 10° N visible
11 Dec 9.6 19:19:46 10° SW 19:22:19 18° W 19:24:55 10° NW visible
12 Dec 8.7 06:41:48 10° NNE 06:45:12 32° E 06:48:32 10° SSE visible
12 Dec 7.7 17:22:08 10° ESE 17:25:11 24° ENE 17:28:17 10° NNE visible
12 Dec 8.6 18:55:16 10° SSW 18:58:35 30° W 19:01:58 10° NNW visible
13 Dec 9.7 06:18:50 10° NE 06:21:28 18° E 06:24:04 10° SE visible
13 Dec 8.3 16:59:41 10° E 17:01:51 15° ENE 17:04:03 10° NNE visible
13 Dec 7.3 18:31:17 10° S 18:34:57 56° W 18:38:40 10° NNW visible
14 Dec 10.3 05:57:14 10° E 05:57:39 10° E 05:58:05 10° E visible
14 Dec 6.6 07:27:56 10° N 07:31:41 74° WNW 07:35:21 10° SSW visible
14 Dec 6.5 18:07:39 10° SSE 18:11:22 77° ENE 18:15:09 10° N visible
14 Dec 10.2 19:45:13 10° W 19:45:24 10° W 19:45:35 10° W visible
15 Dec 7.4 07:04:25 10° NNE 07:08:07 58° E 07:11:44 10° S visible
15 Dec 7.0 17:44:21 10° SE 17:47:52 41° ENE 17:51:27 10° N visible
15 Dec 9.5 19:18:59 10° SW 19:21:35 18° W 19:24:13 10° NW visible
16 Dec 8.7 06:41:06 10° NNE 06:44:28 31° E 06:47:44 10° SSE visible
16 Dec 7.7 17:21:24 10° ESE 17:24:27 24° ENE 17:27:33 10° NNE visible
16 Dec 8.6 18:54:29 10° SSW 18:57:50 31° W 19:01:15 10° NNW visible
17 Dec 9.7 06:18:08 10° NE 06:20:42 18° E 06:23:15 10° SE visible
17 Dec 8.3 16:58:56 10° E 17:01:07 15° ENE 17:03:17 10° NNE visible
17 Dec 7.3 18:30:31 10° S 18:34:12 57° W 18:37:56 10° NNW visible
18 Dec 6.6 07:27:12 10° N 07:30:56 75° WNW 07:34:33 10° SSW visible
18 Dec 6.5 18:06:53 10° SSE 18:10:37 76° ENE 18:14:23 10° N visible
18 Dec 10.2 19:44:07 10° W 19:44:38 10° W 19:45:09 10° W visible
19 Dec 7.4 07:03:40 10° NNE 07:07:20 57° E 07:10:54 10° S visible
19 Dec 7.0 17:43:34 10° SE 17:47:06 41° ENE 17:50:41 10° N visible
19 Dec 9.5 19:18:10 10° SW 19:20:49 18° W 19:23:28 10° NW visible
